Location: Kuffner-Sternwarte
(48.2130°N, 16.2960°E)
Time: 01:33:24
(UTC+02:00)

COROT - Pass Details

Date: 17 May 2018
Orbit: 602 x 886 km, 90.0° (Epoch: 19 October)

Event Time Altitude Azimuth Distance (km) Brightness Sun altitude
Rises 22:57:01 0° 353° (N) 2,968 10.3 -17.7°
Reaches altitude 10° 22:59:19 10° 345° (NNW) 2,088 9.5 -17.8°
Maximum altitude 23:03:29 35° 280° (W) 1,120 7.2 -18.2°
Enters shadow 23:07:50 10° 216° (SW) 2,202 8.1 -18.5°
